[[{"header":{"parameterUnit":"m.s-1","parameterCategory":1,"la1":30.2991,"la2":30.254,"lo1":-89.0895,"lo2":-89.0444,"dy":0.0017,"dx":0.0017,"nx":28,"ny":28,"refTime":"2025-04-23T09:00:00:Z","depth":0,"parameterNumber":2,"parameterNumberName":"U-component_of_WINDS"},"data":[0,0,0,0,0,0,0,0,0,0,0,0,0,0,0,0,0,0,0,0,0,0,0,0,0,0,0,0,0,0,0,0,0,0,0,0,0,0,0,0,0,0,0,0,0,0,0,0,0,0,0,0,0,0,0,0,0,0,-3.1413,-3.1413,0,-3.1458,-3.1459,-3.1459,-3.1435,-3.1434,-3.1432,-3.1431,-3.1477,-3.148,-3.1482,0,0,0,0,0,0,0,0,0,0,0,0,0,-3.1307,-3.1309,-3.1413,-3.1414,-3.1414,-3.1458,-3.1459,-3.1459,-3.1435,-3.1433,-3.1432,-3.1431,-3.1476,-3.1479,-3.1482,0,0,0,0,0,0,0,0,0,0,0,0,0,-3.1353,-3.131,-3.1413,-3.1407,-3.1407,-3.1458,-3.1459,-3.1459,-3.1435,-3.1433,-3.1432,-3.143,-3.1476,-3.1479,-3.1482,-3.1541,0,0,-3.1493,-3.1495,0,0,0,0,0,0,0,0,-3.135,-3.1357,-3.1408,-3.1408,-3.1408,-3.1439,-3.1438,-3.1487,-3.1436,-3.1425,-3.1431,-3.1429,-3.1466,-3.147,-3.1483,-3.1543,-3.1545,-3.1494,-3.1496,-3.1497,-3.1498,0,0,0,0,0,0,0,-3.1347,-3.1355,-3.1431,-3.1408,-3.1408,-3.1403,-3.1408,-3.1447,-3.1455,-3.1425,-3.1424,-3.143,-3.1466,-3.1479,-3.1484,-3.1546,-3.1494,-3.1497,-3.1499,-3.15,-3.1658,-3.166,0,0,0,0,0,0,-3.1344,-3.1352,-3.1429,-3.1432,-3.1374,-3.1406,-3.1411,-3.1431,-3.1455,-3.1456,-3.1431,-3.1428,-3.1474,-3.1479,-3.1485,-3.1555,-3.1497,-3.1501,-3.1503,-3.1656,-3.1659,-3.1661,0,0,0,0,0,0,-3.1342,-3.1351,-3.1428,-3.1392,-3.1401,-3.141,-3.1432,-3.1433,-3.1446,-3.1459,-3.146,-3.1443,-3.1473,-3.148,-3.1528,-3.1556,-3.1502,-3.1505,-3.1654,-3.1657,-3.166,-3.1696,0,0,0,0,0,0,-3.1339,-3.1351,-3.1372,-3.1393,-3.1403,-3.1469,-3.1434,-3.1435,-3.1452,-3.1449,-3.1471,-3.1472,-3.1472,-3.1523,-3.1531,-3.156,-3.1508,-3.1651,-3.1655,-3.1659,-3.1692,-3.17,-3.1707,0,0,0,0,0,-3.1336,-3.138,-3.1374,-3.1383,-3.143,-3.147,-3.1476,-3.1475,-3.1455,-3.1477,-3.1486,-3.1472,-3.1553,-3.1528,-3.1537,-3.1568,-3.1649,-3.1654,-3.1659,-3.1689,-3.1698,-3.1706,0,0,0,0,0,0,-3.1363,-3.1383,-3.1375,-3.1428,-3.1448,-3.1466,-3.1494,-3.1485,-3.1511,-3.1506,-3.1504,-3.1509,-3.1558,-3.1568,-3.154,-3.1627,-3.1598,-3.1605,-3.1618,-3.1627,-3.1634,-3.1629,-3.1511,0,0,0,0,0,-3.1375,-3.1406,-3.1422,-3.1467,-3.1477,-3.1484,-3.1502,-3.1499,-3.1519,-3.1527,-3.1539,-3.156,-3.159,-3.1609,-3.1638,-3.1695,-3.1699,-3.1721,-3.1728,-3.1734,-3.1739,-3.1771,-3.178,-3.1677,-3.1676,-3.1676,0,0,-3.14,-3.1415,-3.1434,-3.1473,-3.1488,-3.152,-3.1491,-3.1526,-3.155,-3.1533,-3.1578,-3.1588,-3.1611,-3.1664,-3.1687,-3.1673,-3.177,-3.174,-3.1745,-3.1746,-3.1777,-3.1786,-3.1795,-3.168,-3.1679,-3.1679,0,0,-3.1462,-3.1477,-3.1516,-3.1532,-3.1556,-3.1561,-3.157,-3.1591,-3.1597,-3.1643,-3.1631,-3.166,-3.1712,-3.1728,-3.1744,-3.1816,-3.1804,-3.1826,-3.1862,-3.1893,-3.1901,-3.1908,-3.1933,-3.1942,-3.1831,-3.1831,-3.1832,0,-3.149,-3.1538,-3.1537,-3.1574,-3.1591,-3.1579,-3.1619,-3.1635,-3.1666,-3.1679,-3.1663,-3.1729,-3.1743,-3.18,-3.1818,-3.1831,-3.1842,-3.1821,-3.19,-3.1907,-3.1914,-3.1938,-3.1947,-3.1834,-3.1834,-3.1833,-3.1833,0,-3.1571,-3.1604,-3.1634,-3.1665,-3.1686,-3.1724,-3.173,-3.1752,-3.1749,-3.1756,-3.1804,-3.1821,-3.1853,-3.1867,-3.1864,-3.1924,-3.1915,-3.19,-3.187,-3.1926,-3.1948,-3.1958,-3.1837,-3.1836,-3.1836,-3.1835,0,0,-3.1647,-3.168,-3.1691,-3.1705,-3.1732,-3.1758,-3.1797,-3.1828,-3.1847,-3.1871,-3.1902,-3.1948,-3.1935,-3.1953,-3.1952,-3.198,-3.2036,-3.1961,-3.1962,-3.1973,-3.2103,-3.2112,-3.2122,-3.2029,-3.2031,-3.2033,-3.21,0,-3.171,-3.1776,-3.1779,-3.184,-3.1871,-3.1861,-3.1895,-3.1915,-3.1924,-3.1952,-3.1962,-3.1994,-3.1975,-3.1985,-3.2012,-3.2023,-3.2061,-3.2018,-3.2059,-3.206,-3.205,-3.2134,-3.2144,-3.2207,-3.2109,-3.2111,-3.2112,0,-3.1791,-3.1817,-3.1881,-3.1905,-3.1918,-3.1948,-3.1978,-3.2006,-3.2029,-3.2034,-3.2055,-3.2051,-3.2092,-3.2064,-3.2119,-3.209,-3.2108,-3.2116,-3.2118,-3.212,-3.2087,-3.2136,-3.2227,-3.2235,-3.2126,-3.2124,-3.2123,0,-3.1839,-3.1891,-3.1936,-3.1949,-3.1978,-3.1999,-3.2012,-3.2035,-3.2054,-3.2081,-3.2094,-3.2126,-3.2143,-3.2168,-3.2173,-3.2152,-3.2229,-3.2201,-3.2233,-3.2233,-3.2247,-3.2246,-3.2339,-3.2262,-3.2262,-3.2262,-3.2262,0,-3.1907,-3.1946,-3.1958,-3.1985,-3.203,-3.2033,-3.2077,-3.2089,-3.2109,-3.214,-3.2135,-3.2163,-3.2169,-3.22,-3.2205,-3.225,-3.2258,-3.2263,-3.2263,-3.2262,-3.2261,-3.2271,-3.2266,-3.2264,-3.2264,-3.2263,-3.2263,0,-3.1966,-3.1976,-3.2024,-3.2049,-3.2056,-3.2087,-3.2108,-3.2135,-3.2145,-3.2183,-3.2192,-3.2207,-3.2243,-3.2251,-3.2294,-3.2297,-3.235,-3.2348,-3.2342,-3.2341,-3.2372,-3.2368,-3.2474,-3.2488,-3.2403,-3.2404,-3.2404,0,-3.2008,-3.2038,-3.2066,-3.2086,-3.21,-3.2133,-3.2153,-3.2159,-3.2181,-3.2212,-3.2235,-3.227,-3.2298,-3.2356,-3.237,-3.2403,-3.24,-3.2435,-3.2405,-3.2403,-3.2399,-3.2396,-3.2399,-3.244,-3.2441,-3.2441,-3.2442,0,-3.208,-3.2084,-3.2114,-3.2146,-3.217,-3.2196,-3.222,-3.2237,-3.2247,-3.2271,-3.2308,-3.233,-3.2374,-3.2409,-3.2443,-3.2457,-3.2451,-3.2452,-3.2461,-3.2459,-3.2454,-3.2456,-3.2355,-3.2449,-3.2448,-3.2447,-3.2447,-3.2447,-3.2131,-3.2158,-3.2182,-3.2216,-3.2235,-3.2258,-3.2285,-3.2299,-3.2329,-3.2365,-3.2368,-3.2407,-3.2433,-3.2477,-3.2494,-3.2526,-3.2515,-3.2528,-3.2531,-3.2534,-3.2536,-3.2451,-3.2532,-3.2532,-3.2532,-3.2532,-3.2532,0,-3.2202,-3.2218,-3.2249,-3.2284,-3.2311,-3.2305,-3.2332,-3.2354,-3.2389,-3.2414,-3.2442,-3.2485,-3.252,-3.2538,-3.2573,-3.2595,-3.2593,-3.2604,-3.2601,-3.2604,-3.2544,-3.2532,-3.2605,-3.2605,-3.2604,-3.2604,-3.2604,-3.2604,-3.2242,-3.2287,-3.2294,-3.2349,-3.2365,-3.2404,-3.242,-3.2442,-3.2461,-3.2509,-3.2538,-3.255,-3.2573,-3.261,-3.2642,-3.2646,-3.2659,-3.267,-3.2674,-3.2616,-3.2609,-3.2601,-3.259,-3.2674,-3.2674,-3.2731,-3.2732,-3.2732]},{"header":{"parameterUnit":"m.s-1","parameterCategory":1,"la1":30.2991,"la2":30.254,"lo1":-89.0895,"lo2":-89.0444,"dy":0.0017,"dx":0.0017,"nx":28,"ny":28,"refTime":"2025-04-23T09:00:00:Z","depth":0,"parameterNumber":3,"parameterNumberName":"V-component_of_WINDS"},"data":[0,0,0,0,0,0,0,0,0,0,0,0,0,0,0,0,0,0,0,0,0,0,0,0,0,0,0,0,0,0,0,0,0,0,0,0,0,0,0,0,0,0,0,0,0,0,0,0,0,0,0,0,0,0,0,0,0,0,3.2831,3.2831,0,3.2891,3.2892,3.2893,3.2959,3.296,3.2961,3.2962,3.3019,3.302,3.302,0,0,0,0,0,0,0,0,0,0,0,0,0,3.277,3.2771,3.2831,3.2832,3.2832,3.2891,3.2892,3.2893,3.2959,3.296,3.2961,3.2962,3.3019,3.3019,3.302,0,0,0,0,0,0,0,0,0,0,0,0,0,3.281,3.2771,3.2831,3.2872,3.2877,3.2891,3.2892,3.2893,3.2958,3.296,3.2961,3.2963,3.3018,3.3019,3.302,3.2997,0,0,3.3023,3.3024,0,0,0,0,0,0,0,0,3.2808,3.2812,3.2865,3.287,3.2874,3.2919,3.2892,3.2928,3.2958,3.2927,3.2962,3.2963,3.2984,3.2988,3.2996,3.3,3.3002,3.3023,3.3024,3.3024,3.3024,0,0,0,0,0,0,0,3.2805,3.281,3.2855,3.2866,3.2872,3.2887,3.2895,3.2899,3.2947,3.293,3.2935,3.2941,3.2987,3.2995,3.2998,3.3003,3.3023,3.3024,3.3025,3.3025,3.2993,3.2992,0,0,0,0,0,0,3.2796,3.2807,3.2853,3.2856,3.2844,3.2887,3.2895,3.2903,3.2947,3.2955,3.294,3.2944,3.2993,3.2997,3.3,3.2978,3.3024,3.3025,3.3026,3.2995,3.2993,3.2992,0,0,0,0,0,0,3.2795,3.28,3.285,3.2833,3.2841,3.2887,3.2895,3.2904,3.2912,3.2955,3.2963,3.294,3.2994,3.2999,3.2998,3.2981,3.3026,3.3026,3.2996,3.2994,3.2992,3.2931,0,0,0,0,0,0,3.2793,3.2799,3.2791,3.2833,3.2842,3.2848,3.2894,3.2904,3.2914,3.292,3.2957,3.2964,3.2996,3.2997,3.2999,3.2983,3.3027,3.2998,3.2996,3.2993,3.2935,3.2927,3.2921,0,0,0,0,0,3.279,3.2769,3.279,3.2795,3.2833,3.2847,3.2852,3.289,3.2912,3.2904,3.2932,3.2963,3.2982,3.2996,3.2999,3.2983,3.3,3.2996,3.2993,3.2938,3.2929,3.2921,0,0,0,0,0,0,3.2721,3.2775,3.2799,3.2791,3.2814,3.2858,3.2849,3.2878,3.2894,3.2899,3.2944,3.2952,3.2946,3.2964,3.2979,3.2964,3.2995,3.2993,3.2952,3.2944,3.2937,3.2932,3.3028,0,0,0,0,0,3.2706,3.2714,3.276,3.2749,3.2759,3.2802,3.2809,3.2837,3.2862,3.2872,3.29,3.2922,3.2933,3.2939,3.2952,3.2938,3.2948,3.2929,3.2922,3.2915,3.2913,3.2909,3.2901,3.2981,3.2981,3.2981,0,0,3.2673,3.2703,3.2705,3.2736,3.2757,3.2764,3.281,3.2814,3.282,3.2872,3.2874,3.2895,3.2923,3.2917,3.2915,3.2932,3.2893,3.2911,3.2906,3.2907,3.2905,3.2897,3.2891,3.2979,3.298,3.298,0,0,3.2616,3.264,3.2634,3.2655,3.2688,3.2717,3.2715,3.2756,3.2773,3.2776,3.2816,3.2823,3.2841,3.286,3.2872,3.2826,3.2855,3.2829,3.2791,3.2787,3.2781,3.2775,3.276,3.2754,3.2826,3.2826,3.2825,0,3.2571,3.2584,3.2627,3.2631,3.2643,3.2694,3.2689,3.2706,3.274,3.2748,3.2766,3.2793,3.2814,3.2814,3.2803,3.2811,3.2811,3.2824,3.2778,3.2773,3.2769,3.2755,3.2749,3.2822,3.2823,3.2823,3.2823,0,3.2527,3.2535,3.2527,3.2561,3.2573,3.2572,3.2615,3.2622,3.2649,3.2676,3.268,3.2709,3.2729,3.2731,3.2756,3.2735,3.2745,3.277,3.2802,3.2757,3.2745,3.274,3.2817,3.2819,3.282,3.282,0,0,3.2427,3.2488,3.2484,3.2502,3.2542,3.2549,3.2551,3.2574,3.2579,3.2601,3.2604,3.262,3.2645,3.2658,3.2687,3.2683,3.2647,3.2709,3.2711,3.2698,3.2627,3.2608,3.2601,3.2667,3.2666,3.2665,3.2625,0,3.2378,3.2386,3.2427,3.2422,3.2432,3.2481,3.2483,3.2508,3.2533,3.2545,3.2573,3.2584,3.2615,3.2624,3.2623,3.2652,3.2634,3.2655,3.267,3.267,3.2662,3.2595,3.2574,3.2535,3.2621,3.262,3.2619,0,3.2322,3.2344,3.2341,3.2385,3.239,3.2391,3.2416,3.2427,3.2456,3.2476,3.2492,3.2525,3.253,3.2561,3.2568,3.2582,3.2591,3.2606,3.2606,3.2609,3.2642,3.2597,3.2523,3.2517,3.2612,3.2612,3.2613,0,3.2252,3.228,3.2283,3.2296,3.2346,3.2346,3.2367,3.2399,3.241,3.2432,3.244,3.2461,3.2472,3.2488,3.2525,3.2544,3.2529,3.2563,3.2546,3.2545,3.254,3.254,3.2467,3.2544,3.2544,3.2544,3.2545,0,3.2193,3.219,3.2252,3.2254,3.2252,3.2299,3.2295,3.2321,3.2349,3.2356,3.2399,3.2405,3.2455,3.2466,3.2496,3.2499,3.2503,3.2519,3.2527,3.2515,3.2513,3.2521,3.2525,3.2543,3.2543,3.2544,3.2544,0,3.2114,3.2155,3.2162,3.221,3.2222,3.2219,3.226,3.2264,3.2293,3.2302,3.2307,3.2353,3.2369,3.2409,3.2434,3.2454,3.2449,3.2463,3.244,3.2445,3.2426,3.2428,3.2357,3.235,3.243,3.243,3.2429,0,3.2074,3.2073,3.2122,3.2132,3.2151,3.2165,3.2178,3.2224,3.2236,3.2272,3.2271,3.2291,3.231,3.2333,3.2368,3.2389,3.2404,3.2378,3.2407,3.2397,3.2405,3.2405,3.2406,3.2371,3.237,3.2369,3.2369,0,3.2,3.2021,3.2039,3.2065,3.208,3.2102,3.2127,3.2131,3.2184,3.2195,3.2213,3.2228,3.2256,3.2275,3.2302,3.2322,3.2354,3.2359,3.2357,3.2345,3.2332,3.234,3.2423,3.2361,3.2361,3.2362,3.2362,3.2363,3.194,3.1943,3.1979,3.1998,3.2022,3.2044,3.2051,3.2083,3.2099,3.2127,3.2153,3.2169,3.2201,3.2241,3.2259,3.2272,3.2288,3.2284,3.2283,3.2282,3.2277,3.233,3.2277,3.2277,3.2278,3.2278,3.2278,0,3.1869,3.1896,3.1913,3.1947,3.1963,3.1994,3.2023,3.2033,3.2048,3.2076,3.2094,3.2116,3.2136,3.2174,3.2197,3.22,3.2216,3.2205,3.2205,3.221,3.2261,3.2261,3.2192,3.2192,3.2192,3.2192,3.2192,3.2192,3.1834,3.1841,3.1867,3.1886,3.1912,3.193,3.1944,3.1966,3.1989,3.2012,3.203,3.2055,3.2087,3.2114,3.2134,3.2144,3.2151,3.2136,3.2151,3.2198,3.2206,3.2214,3.2214,3.2137,3.2137,3.2099,3.2099,3.2099]}]]